Location: Invercargill
(46.4000°S, 168.3500°E)
Time: 03:38:04
(UTC+13:00)

Cosmos 2322 - Pass Details

Date: 03 October 2021
Orbit: 840 x 855 km, 71.0° (Epoch: 24 October)

Event Time Altitude Azimuth Distance (km) Brightness Sun altitude
Rises 00:15:25 0° 215° (SW) 3,435 7.8 -36.8°
Reaches altitude 10° 00:18:06 10° 224° (SW) 2,494 6.8 -37.0°
Enters shadow 00:20:57 25° 247° (WSW) 1,678 5.5 -37.2°
